Regional Weather Roundup
Issued by NWS Kansas City/Pleasant Hill, MO

Home | Current Version | Previous Version | Graphics & Text | Print | Product List | Glossary Off
Versions: 1 2 3 4 5 6 7 8 9 10 11 12 13 14 15 16 17 18 19 20 21 22 23 24 25 26 27

000
ASUS43 KEAX 241610
RWREAX

WEATHER ROUNDUP FOR EASTERN KANSAS AND NORTHWEST MISSOURI
NATIONAL WEATHER SERVICE KANSAS CITY/PLEASANT HILL MO
1100 AM CDT SUN JUL 24 2016

KSZ040-057-103>105-MOZ028-029-037-043-241700-
...KANSAS CITY METROPOLITAN AREA...

CITY           SKY/WX    TMP DP  RH WIND       PRES   REMARKS
K.C. INTL      MOSUNNY   88  73  61 CALM      29.94S HX  95
K.C. DOWNTOWN  SUNNY     91  72  53 NW5       29.92S HX  98
LEES SUMMIT    SUNNY     90  73  57 NW3       29.95S HX  98
OLATHE - IXD   SUNNY     90  72  55 VRB6      29.95R HX  97
OLATHE - OJC   SUNNY     89  72  56 NW7       29.95R HX  96
LAWRENCE       MOSUNNY   91  74  57 VRB3      29.92S HX 100

$$

MOZ001>008-011>017-020>025-030>033-038>040-044>046-053-054-241700-
...NORTHERN AND CENTRAL MISSOURI...

CITY           SKY/WX    TMP DP  RH WIND       PRES   REMARKS
ST. JOSEPH     PTSUNNY   87  74  64 VRB3      29.92S HX  95
MOSBY          SUNNY     88  72  58 CALM      29.93R HX  94
WHITEMAN AFB   MOSUNNY   87  77  72 SW7       29.95R HX  97
CLINTON        MOSUNNY   86  77  74 SW9       29.96S HX  97
SEDALIA        CLOUDY    86  76  71 SW7       29.97R HX  96
WARSAW         NOT AVBL
CHILLICOTHE      N/A     91  76  61 VRB3      29.92S HX 103
KIRKSVILLE     MOSUNNY   91  73  55 W13       29.92S HX  99

$$

MOZ041-047>049-056>058-063>065-088>090-097-241700-
...EASTERN AND SOUTHERN MISSOURI...

CITY           SKY/WX    TMP DP  RH WIND       PRES   REMARKS
ST. LOUIS INTL MOSUNNY   93  75  55 VRB6      29.97S HX 104
SPIRIT OF STL  SUNNY     91  77  63 SW6       29.95R HX 104
COLUMBIA       SUNNY     91  77  63 SW10      29.96S HX 104
JEFFERSON CITY SUNNY     93  75  55 W8        29.94S HX 104
ROLLA          SUNNY     89  76  65 W6        29.99R HX 100
OSAGE BEACH    SUNNY     90  77  65 W6        29.99S HX 103
SPRINGFIELD    SUNNY     91  72  53 SW9       30.01S HX  98
BRANSON        MOSUNNY   90  73  58 W6        30.04R HX  98
JOPLIN         CLOUDY    87  74  64 SW12      30.00R HX  95
WEST PLAINS    SUNNY     88  72  58 VRB3      30.05R HX  94

$$

IAZ060-094-KSZ022-034>040-054-083-096-NEZ052-066-093-241700-
...KANSAS...SOUTHEAST NEBRASKA AND IOWA...

CITY           SKY/WX    TMP DP  RH WIND       PRES   REMARKS
TOPEKA         PTSUNNY   90  73  57 NE3       29.92R HX  98
MANHATTAN      PTSUNNY   82  72  71 SW7       29.92R
EMPORIA        CLOUDY    89  71  55 SW6       29.95R HX  95
CHANUTE        SUNNY     89  75  63 SW10      29.96R HX  99
WICHITA        MOSUNNY   95  67  39 SW10      29.94S HX  99
OMAHA          PTSUNNY   86  65  49 N14       29.97R
LINCOLN        PTSUNNY   83  69  62 N6        30.01R
FALLS CITY     PTSUNNY   89  79  72 N9G17     29.91S HX 104
LAMONI         MOSUNNY   86  76  71 NW8       29.92R HX  96
DES MOINES     MOSUNNY   87  74  64 N12       29.89S HX  95

$$





USA.gov is the U.S. government's official web portal to all federal, state and local government web resources and services.